Time,TemperatureF,DewpointF,PressureIn,WindDirection,WindDirectionDegrees,WindSpeedMPH,WindSpeedGustMPH,Humidity,HourlyPrecipIn,Conditions,Clouds,dailyrainin,SoftwareType,DateUTC
2013-07-24 00:02:00,68.1,56.7,29.61,West,263,0.0,0.0,67,0.00,,,0.00,Wunderground v.1.15,2013-07-24 04:02:00,
2013-07-24 00:07:00,68.1,56.7,29.61,West,263,0.0,0.0,67,0.00,,,0.00,Wunderground v.1.15,2013-07-24 04:07:00,
2013-07-24 00:17:00,67.9,56.5,29.62,West,261,0.0,0.0,67,0.00,,,0.00,Wunderground v.1.15,2013-07-24 04:17:00,
2013-07-24 00:22:00,67.9,56.5,29.62,West,261,0.0,0.0,67,0.00,,,0.00,Wunderground v.1.15,2013-07-24 04:22:00,
2013-07-24 00:32:00,67.8,56.4,29.62,WNW,302,0.0,0.0,67,0.00,,,0.00,Wunderground v.1.15,2013-07-24 04:32:00,
2013-07-24 00:37:00,67.6,56.2,29.62,NW,309,0.0,0.0,67,0.00,,,0.00,Wunderground v.1.15,2013-07-24 04:37:00,
2013-07-24 00:47:00,67.4,56.1,29.63,WSW,258,0.0,0.0,67,0.00,,,0.00,Wunderground v.1.15,2013-07-24 04:47:00,
2013-07-24 00:52:00,67.3,55.5,29.63,North,0,0.0,0.0,66,0.00,,,0.00,Wunderground v.1.15,2013-07-24 04:52:00,
2013-07-24 01:02:00,67.1,55.4,29.63,WNW,288,0.0,0.0,66,0.00,,,0.00,Wunderground v.1.15,2013-07-24 05:02:00,
2013-07-24 01:12:00,66.9,55.6,29.63,SW,233,0.0,0.0,67,0.00,,,0.00,Wunderground v.1.15,2013-07-24 05:12:00,
2013-07-24 01:22:00,66.8,55.5,29.63,SW,233,0.0,0.0,67,0.00,,,0.00,Wunderground v.1.15,2013-07-24 05:22:00,
2013-07-24 01:27:00,66.8,55.1,29.63,SW,233,0.0,0.0,66,0.00,,,0.00,Wunderground v.1.15,2013-07-24 05:27:00,
2013-07-24 01:32:00,66.6,54.9,29.62,WNW,285,0.0,0.0,66,0.00,,,0.00,Wunderground v.1.15,2013-07-24 05:32:00,
2013-07-24 01:37:00,66.6,54.9,29.62,WNW,284,0.0,0.0,66,0.00,,,0.00,Wunderground v.1.15,2013-07-24 05:37:00,
2013-07-24 01:47:00,66.4,55.1,29.62,WNW,284,0.0,0.0,67,0.00,,,0.00,Wunderground v.1.15,2013-07-24 05:47:00,
2013-07-24 01:52:00,66.4,55.1,29.62,WNW,284,0.0,0.0,67,0.00,,,0.00,Wunderground v.1.15,2013-07-24 05:52:00,
2013-07-24 02:02:00,66.3,55.0,29.62,WNW,284,0.0,0.0,67,0.00,,,0.00,Wunderground v.1.15,2013-07-24 06:02:00,
2013-07-24 02:12:00,66.1,55.2,29.62,WNW,285,0.0,0.0,68,0.00,,,0.00,Wunderground v.1.15,2013-07-24 06:12:00,
2013-07-24 02:22:00,66.0,55.1,29.63,West,265,0.0,0.0,68,0.00,,,0.00,Wunderground v.1.15,2013-07-24 06:22:00,
2013-07-24 02:32:00,65.8,55.3,29.63,West,265,0.0,0.0,69,0.00,,,0.00,Wunderground v.1.15,2013-07-24 06:32:00,
2013-07-24 02:37:00,65.8,55.3,29.63,WNW,282,0.0,1.0,69,0.00,,,0.00,Wunderground v.1.15,2013-07-24 06:37:00,
2013-07-24 02:47:00,65.6,55.5,29.64,South,184,0.0,0.0,70,0.00,,,0.00,Wunderground v.1.15,2013-07-24 06:47:00,
2013-07-24 02:52:00,65.6,55.9,29.64,South,184,0.0,0.0,71,0.00,,,0.00,Wunderground v.1.15,2013-07-24 06:52:00,
2013-07-24 03:02:00,65.3,55.7,29.64,West,274,0.0,2.0,71,0.00,,,0.00,Wunderground v.1.15,2013-07-24 07:02:00,
2013-07-24 03:12:00,65.2,55.9,29.64,West,274,0.0,0.0,72,0.00,,,0.00,Wunderground v.1.15,2013-07-24 07:12:00,
2013-07-24 03:22:00,65.0,56.1,29.65,West,272,0.0,0.0,73,0.00,,,0.00,Wunderground v.1.15,2013-07-24 07:22:00,
2013-07-24 03:32:00,64.8,55.9,29.65,West,271,0.0,0.0,73,0.00,,,0.00,Wunderground v.1.15,2013-07-24 07:32:00,
2013-07-24 03:37:00,64.7,55.8,29.65,West,272,0.0,0.0,73,0.00,,,0.00,Wunderground v.1.15,2013-07-24 07:37:00,
2013-07-24 03:47:00,64.7,55.8,29.66,West,275,0.0,0.0,73,0.00,,,0.00,Wunderground v.1.15,2013-07-24 07:47:00,
2013-07-24 03:52:00,64.7,56.2,29.66,West,275,0.0,0.0,74,0.00,,,0.00,Wunderground v.1.15,2013-07-24 07:52:00,
2013-07-24 04:02:00,64.5,56.0,29.66,West,275,0.0,0.0,74,0.00,,,0.00,Wunderground v.1.15,2013-07-24 08:02:00,
2013-07-24 04:07:00,64.5,56.0,29.66,West,275,0.0,0.0,74,0.00,,,0.00,Wunderground v.1.15,2013-07-24 08:07:00,
2013-07-24 04:17:00,64.3,55.8,29.66,West,268,0.0,0.0,74,0.00,,,0.00,Wunderground v.1.15,2013-07-24 08:17:00,
2013-07-24 04:22:00,64.2,56.1,29.66,West,268,0.0,0.0,75,0.00,,,0.00,Wunderground v.1.15,2013-07-24 08:22:00,
2013-07-24 04:32:00,64.0,55.9,29.66,North,352,0.0,0.0,75,0.00,,,0.00,Wunderground v.1.15,2013-07-24 08:32:00,
2013-07-24 04:37:00,64.0,55.5,29.66,North,352,0.0,0.0,74,0.00,,,0.00,Wunderground v.1.15,2013-07-24 08:37:00,
2013-07-24 04:47:00,63.9,55.1,29.67,NW,309,0.0,0.0,73,0.00,,,0.00,Wunderground v.1.15,2013-07-24 08:47:00,
2013-07-24 04:52:00,63.9,55.1,29.67,North,6,0.0,0.0,73,0.00,,,0.00,Wunderground v.1.15,2013-07-24 08:52:00,
2013-07-24 05:02:00,63.7,54.5,29.68,NW,311,0.0,0.0,72,0.00,,,0.00,Wunderground v.1.15,2013-07-24 09:02:00,
2013-07-24 05:07:00,63.5,53.9,29.68,North,354,0.0,3.0,71,0.00,,,0.00,Wunderground v.1.15,2013-07-24 09:07:00,
2013-07-24 05:17:00,63.2,52.9,29.68,NNW,343,0.0,2.0,69,0.00,,,0.00,Wunderground v.1.15,2013-07-24 09:17:00,
2013-07-24 05:22:00,63.1,52.0,29.68,NW,322,0.0,2.0,67,0.00,,,0.00,Wunderground v.1.15,2013-07-24 09:22:00,
2013-07-24 05:32:00,62.9,51.4,29.69,NNW,346,1.0,1.0,66,0.00,,,0.00,Wunderground v.1.15,2013-07-24 09:32:00,
2013-07-24 05:37:00,62.9,51.4,29.69,NW,309,1.0,1.0,66,0.00,,,0.00,Wunderground v.1.15,2013-07-24 09:37:00,
2013-07-24 05:47:00,62.6,50.7,29.70,North,8,2.0,5.0,65,0.00,,,0.00,Wunderground v.1.15,2013-07-24 09:47:00,
2013-07-24 05:52:00,62.4,51.3,29.70,North,0,1.0,1.0,67,0.00,,,0.00,Wunderground v.1.15,2013-07-24 09:52:00,
2013-07-24 06:02:00,62.0,50.5,29.71,North,352,1.0,1.0,66,0.00,,,0.00,Wunderground v.1.15,2013-07-24 10:02:00,
2013-07-24 06:12:00,61.5,50.0,29.71,NNW,343,2.0,2.0,66,0.00,,,0.00,Wunderground v.1.15,2013-07-24 10:12:00,
2013-07-24 06:22:00,61.2,50.2,29.72,North,359,0.0,1.0,67,0.00,,,0.00,Wunderground v.1.15,2013-07-24 10:22:00,
2013-07-24 06:32:00,60.7,49.7,29.73,North,0,1.0,6.0,67,0.00,,,0.00,Wunderground v.1.15,2013-07-24 10:32:00,
2013-07-24 06:37:00,60.5,49.9,29.73,NNE,20,1.0,6.0,68,0.00,,,0.00,Wunderground v.1.15,2013-07-24 10:37:00,
2013-07-24 06:47:00,60.2,49.6,29.74,NNE,14,1.0,6.0,68,0.00,,,0.00,Wunderground v.1.15,2013-07-24 10:47:00,
2013-07-24 06:52:00,60.1,49.9,29.74,North,3,0.0,0.0,69,0.00,,,0.00,Wunderground v.1.15,2013-07-24 10:52:00,
2013-07-24 07:02:00,59.9,49.7,29.75,North,0,0.0,0.0,69,0.00,,,0.00,Wunderground v.1.15,2013-07-24 11:02:00,
2013-07-24 07:07:00,59.8,49.6,29.75,North,3,1.0,2.0,69,0.00,,,0.00,Wunderground v.1.15,2013-07-24 11:07:00,
2013-07-24 07:12:00,59.6,48.6,29.75,North,356,1.0,1.0,67,0.00,,,0.00,Wunderground v.1.15,2013-07-24 11:12:00,
2013-07-24 07:22:00,59.5,48.5,29.75,North,0,1.0,1.0,67,0.00,,,0.00,Wunderground v.1.15,2013-07-24 11:22:00,
2013-07-24 07:32:00,59.5,48.5,29.76,North,353,1.0,1.0,67,0.00,,,0.00,Wunderground v.1.15,2013-07-24 11:32:00,
2013-07-24 07:37:00,59.5,48.5,29.76,NNW,342,2.0,2.0,67,0.00,,,0.00,Wunderground v.1.15,2013-07-24 11:37:00,
2013-07-24 07:47:00,59.5,48.9,29.76,WSW,254,1.0,2.0,68,0.00,,,0.00,Wunderground v.1.15,2013-07-24 11:47:00,
2013-07-24 07:52:00,59.8,48.8,29.76,North,0,1.0,1.0,67,0.00,,,0.00,Wunderground v.1.15,2013-07-24 11:52:00,
2013-07-24 08:02:00,59.9,48.5,29.77,North,359,1.0,1.0,66,0.00,,,0.00,Wunderground v.1.15,2013-07-24 12:02:00,
2013-07-24 08:12:00,59.8,49.2,29.77,WSW,241,1.0,1.0,68,0.00,,,0.00,Wunderground v.1.15,2013-07-24 12:12:00,
2013-07-24 08:22:00,59.6,49.4,29.78,NNE,24,1.0,1.0,69,0.00,,,0.00,Wunderground v.1.15,2013-07-24 12:22:00,
2013-07-24 08:32:00,59.3,48.7,29.79,NNE,18,1.0,1.0,68,0.00,,,0.00,Wunderground v.1.15,2013-07-24 12:32:00,
2013-07-24 08:37:00,59.3,49.1,29.79,North,357,0.0,1.0,69,0.00,,,0.00,Wunderground v.1.15,2013-07-24 12:37:00,
2013-07-24 08:47:00,59.2,48.6,29.80,North,8,0.0,0.0,68,0.00,,,0.00,Wunderground v.1.15,2013-07-24 12:47:00,
2013-07-24 08:52:00,59.3,48.7,29.80,ESE,123,0.0,0.0,68,0.00,,,0.00,Wunderground v.1.15,2013-07-24 12:52:00,
2013-07-24 09:02:00,59.5,48.9,29.81,WNW,291,0.0,0.0,68,0.00,,,0.00,Wunderground v.1.15,2013-07-24 13:02:00,
2013-07-24 09:12:00,59.6,49.0,29.81,WNW,302,0.0,0.0,68,0.00,,,0.00,Wunderground v.1.15,2013-07-24 13:12:00,
2013-07-24 09:22:00,59.8,48.8,29.81,NNE,30,0.0,0.0,67,0.00,,,0.00,Wunderground v.1.15,2013-07-24 13:22:00,
2013-07-24 09:32:00,59.9,49.7,29.81,North,349,0.0,0.0,69,0.00,,,0.00,Wunderground v.1.15,2013-07-24 13:32:00,
2013-07-24 09:37:00,59.9,49.3,29.81,NW,322,0.0,0.0,68,0.00,,,0.00,Wunderground v.1.15,2013-07-24 13:37:00,
2013-07-24 09:47:00,59.9,49.7,29.82,West,264,0.0,0.0,69,0.00,,,0.00,Wunderground v.1.15,2013-07-24 13:47:00,
2013-07-24 09:52:00,60.2,49.2,29.82,NNW,344,0.0,0.0,67,0.00,,,0.00,Wunderground v.1.15,2013-07-24 13:52:00,
2013-07-24 10:02:00,60.4,48.6,29.83,NNW,342,1.0,2.0,65,0.00,,,0.00,Wunderground v.1.15,2013-07-24 14:02:00,
2013-07-24 10:12:00,60.9,49.5,29.83,NNE,18,0.0,0.0,66,0.00,,,0.00,Wunderground v.1.15,2013-07-24 14:12:00,
2013-07-24 10:22:00,60.5,49.5,29.83,North,349,0.0,0.0,67,0.00,,,0.00,Wunderground v.1.15,2013-07-24 14:22:00,
2013-07-24 10:32:00,60.1,49.1,29.84,NNW,347,0.0,0.0,67,0.00,,,0.00,Wunderground v.1.15,2013-07-24 14:32:00,
2013-07-24 10:37:00,60.1,49.1,29.84,North,352,0.0,0.0,67,0.00,,,0.00,Wunderground v.1.15,2013-07-24 14:37:00,
2013-07-24 10:47:00,60.1,49.1,29.85,North,359,0.0,0.0,67,0.00,,,0.00,Wunderground v.1.15,2013-07-24 14:47:00,
2013-07-24 10:52:00,59.9,48.9,29.85,West,270,0.0,0.0,67,0.00,,,0.00,Wunderground v.1.15,2013-07-24 14:52:00,
2013-07-24 11:02:00,60.1,49.1,29.86,North,349,0.0,0.0,67,0.00,,,0.00,Wunderground v.1.15,2013-07-24 15:02:00,
2013-07-24 11:07:00,60.4,49.0,29.86,North,353,0.0,0.0,66,0.00,,,0.00,Wunderground v.1.15,2013-07-24 15:07:00,
2013-07-24 11:12:00,60.5,48.7,29.86,NNE,20,0.0,0.0,65,0.00,,,0.00,Wunderground v.1.15,2013-07-24 15:12:00,
2013-07-24 11:22:00,60.5,48.7,29.86,North,0,0.0,1.0,65,0.00,,,0.00,Wunderground v.1.15,2013-07-24 15:22:00,
2013-07-24 11:32:00,60.4,48.6,29.86,WSW,247,0.0,0.0,65,0.00,,,0.00,Wunderground v.1.15,2013-07-24 15:32:00,
2013-07-24 11:37:00,60.5,48.7,29.86,NNE,23,0.0,0.0,65,0.00,,,0.00,Wunderground v.1.15,2013-07-24 15:37:00,
2013-07-24 11:47:00,60.4,49.0,29.87,North,350,0.0,0.0,66,0.00,,,0.00,Wunderground v.1.15,2013-07-24 15:47:00,
2013-07-24 11:52:00,60.4,49.0,29.87,North,357,0.0,0.0,66,0.00,,,0.00,Wunderground v.1.15,2013-07-24 15:52:00,
2013-07-24 12:02:00,60.5,48.7,29.88,WNW,302,0.0,0.0,65,0.00,,,0.00,Wunderground v.1.15,2013-07-24 16:02:00,
2013-07-24 12:12:00,60.5,48.7,29.88,North,357,0.0,0.0,65,0.00,,,0.00,Wunderground v.1.15,2013-07-24 16:12:00,
2013-07-24 12:22:00,60.9,49.5,29.89,North,357,0.0,0.0,66,0.00,,,0.00,Wunderground v.1.15,2013-07-24 16:22:00,
2013-07-24 12:32:00,60.7,48.9,29.89,West,264,0.0,0.0,65,0.00,,,0.00,Wunderground v.1.15,2013-07-24 16:32:00,
2013-07-24 12:37:00,60.9,49.1,29.89,NNW,344,0.0,0.0,65,0.00,,,0.00,Wunderground v.1.15,2013-07-24 16:37:00,
2013-07-24 12:47:00,60.5,49.1,29.89,North,0,0.0,0.0,66,0.00,,,0.00,Wunderground v.1.15,2013-07-24 16:47:00,
2013-07-24 12:52:00,60.2,49.2,29.89,NW,304,0.0,0.0,67,0.00,,,0.00,Wunderground v.1.15,2013-07-24 16:52:00,
2013-07-24 13:02:00,61.2,50.2,29.89,NW,322,0.0,0.0,67,0.00,,,0.00,Wunderground v.1.15,2013-07-24 17:02:00,
2013-07-24 13:12:00,61.8,49.5,29.89,NW,313,0.0,0.0,64,0.00,,,0.00,Wunderground v.1.15,2013-07-24 17:12:00,
2013-07-24 13:22:00,61.2,48.9,29.90,North,0,0.0,0.0,64,0.00,,,0.00,Wunderground v.1.15,2013-07-24 17:22:00,
2013-07-24 13:32:00,61.8,48.6,29.90,North,4,0.0,0.0,62,0.00,,,0.00,Wunderground v.1.15,2013-07-24 17:32:00,
2013-07-24 13:37:00,62.1,48.9,29.90,North,4,0.0,0.0,62,0.00,,,0.00,Wunderground v.1.15,2013-07-24 17:37:00,
2013-07-24 13:47:00,62.4,48.3,29.90,NNE,16,0.0,0.0,60,0.00,,,0.00,Wunderground v.1.15,2013-07-24 17:47:00,
2013-07-24 13:53:00,63.4,49.3,29.90,WSW,241,0.0,5.0,60,0.00,,,0.00,Wunderground v.1.15,2013-07-24 17:53:00,
2013-07-24 14:02:00,63.5,48.5,29.90,North,0,1.0,2.0,58,0.00,,,0.00,Wunderground v.1.15,2013-07-24 18:02:00,
2013-07-24 14:07:00,63.4,47.9,29.90,NNE,13,1.0,2.0,57,0.00,,,0.00,Wunderground v.1.15,2013-07-24 18:07:00,
2013-07-24 14:17:00,64.7,48.6,29.89,NNE,13,0.0,1.0,56,0.00,,,0.00,Wunderground v.1.15,2013-07-24 18:17:00,
2013-07-24 14:23:00,65.3,46.2,29.89,NNW,346,1.0,1.0,50,0.00,,,0.00,Wunderground v.1.15,2013-07-24 18:23:00,
2013-07-24 14:32:00,65.0,46.4,29.89,North,0,1.0,5.0,51,0.00,,,0.00,Wunderground v.1.15,2013-07-24 18:32:00,
2013-07-24 14:38:00,64.0,46.0,29.89,North,357,3.0,5.0,52,0.00,,,0.00,Wunderground v.1.15,2013-07-24 18:38:00,
2013-07-24 14:47:00,64.5,48.4,29.90,North,0,1.0,5.0,56,0.00,,,0.00,Wunderground v.1.15,2013-07-24 18:47:00,
2013-07-24 14:53:00,64.7,46.7,29.90,NNW,347,1.0,1.0,52,0.00,,,0.00,Wunderground v.1.15,2013-07-24 18:53:00,
2013-07-24 15:02:00,64.7,46.7,29.89,WSW,248,2.0,2.0,52,0.00,,,0.00,Wunderground v.1.15,2013-07-24 19:02:00,
2013-07-24 15:08:00,64.8,47.3,29.89,North,353,1.0,2.0,53,0.00,,,0.00,Wunderground v.1.15,2013-07-24 19:08:00,
2013-07-24 15:17:00,64.7,47.2,29.90,West,277,2.0,3.0,53,0.00,,,0.00,Wunderground v.1.15,2013-07-24 19:17:00,
2013-07-24 15:23:00,65.2,46.6,29.90,NNW,335,1.0,3.0,51,0.00,,,0.00,Wunderground v.1.15,2013-07-24 19:23:00,
2013-07-24 15:32:00,64.8,46.2,29.90,North,4,2.0,2.0,51,0.00,,,0.00,Wunderground v.1.15,2013-07-24 19:32:00,
2013-07-24 15:37:00,64.3,46.8,29.90,North,0,1.0,2.0,53,0.00,,,0.00,Wunderground v.1.15,2013-07-24 19:37:00,
2013-07-24 15:47:00,64.5,47.5,29.90,North,0,2.0,4.0,54,0.00,,,0.00,Wunderground v.1.15,2013-07-24 19:47:00,
2013-07-24 15:52:00,65.2,47.1,29.90,NNE,23,2.0,2.0,52,0.00,,,0.00,Wunderground v.1.15,2013-07-24 19:52:00,
2013-07-24 16:02:00,65.5,47.4,29.90,North,6,1.0,1.0,52,0.00,,,0.00,Wunderground v.1.15,2013-07-24 20:02:00,
2013-07-24 16:07:00,66.3,48.1,29.90,North,356,1.0,1.0,52,0.00,,,0.00,Wunderground v.1.15,2013-07-24 20:07:00,
2013-07-24 16:17:00,66.1,46.4,29.90,North,359,1.0,3.0,49,0.00,,,0.00,Wunderground v.1.15,2013-07-24 20:17:00,
2013-07-24 16:23:00,66.0,47.3,29.90,NW,308,1.0,1.0,51,0.00,,,0.00,Wunderground v.1.15,2013-07-24 20:23:00,
2013-07-24 16:32:00,66.6,46.8,29.90,North,357,1.0,1.0,49,0.00,,,0.00,Wunderground v.1.15,2013-07-24 20:32:00,
2013-07-24 16:37:00,66.1,47.4,29.90,West,277,2.0,2.0,51,0.00,,,0.00,Wunderground v.1.15,2013-07-24 20:37:00,
2013-07-24 16:47:00,66.6,47.9,29.91,North,353,1.0,1.0,51,0.00,,,0.00,Wunderground v.1.15,2013-07-24 20:47:00,
2013-07-24 16:52:00,66.4,46.7,29.91,North,350,1.0,1.0,49,0.00,,,0.00,Wunderground v.1.15,2013-07-24 20:52:00,
2013-07-24 17:02:00,66.6,48.9,29.91,North,359,1.0,1.0,53,0.00,,,0.00,Wunderground v.1.15,2013-07-24 21:02:00,
2013-07-24 17:07:00,66.3,46.6,29.91,NNE,24,1.0,1.0,49,0.00,,,0.00,Wunderground v.1.15,2013-07-24 21:07:00,
2013-07-24 17:17:00,66.9,47.1,29.91,West,263,0.0,1.0,49,0.00,,,0.00,Wunderground v.1.15,2013-07-24 21:17:00,
2013-07-24 17:22:00,67.1,47.3,29.91,North,0,0.0,0.0,49,0.00,,,0.00,Wunderground v.1.15,2013-07-24 21:22:00,
2013-07-24 17:32:00,67.3,47.5,29.91,North,0,0.0,0.0,49,0.00,,,0.00,Wunderground v.1.15,2013-07-24 21:32:00,
2013-07-24 17:37:00,67.4,47.0,29.91,North,0,0.0,0.0,48,0.00,,,0.00,Wunderground v.1.15,2013-07-24 21:37:00,
2013-07-24 17:47:00,66.9,47.1,29.91,NNW,347,1.0,3.0,49,0.00,,,0.00,Wunderground v.1.15,2013-07-24 21:47:00,
2013-07-24 17:52:00,67.1,47.3,29.91,NNW,347,0.0,1.0,49,0.00,,,0.00,Wunderground v.1.15,2013-07-24 21:52:00,
2013-07-24 18:02:00,66.9,48.2,29.91,NNW,344,1.0,1.0,51,0.00,,,0.00,Wunderground v.1.15,2013-07-24 22:02:00,
2013-07-24 18:07:00,66.8,47.0,29.91,NNW,344,0.0,1.0,49,0.00,,,0.00,Wunderground v.1.15,2013-07-24 22:07:00,
2013-07-24 18:12:00,67.1,48.9,29.91,NNW,344,0.0,2.0,52,0.00,,,0.00,Wunderground v.1.15,2013-07-24 22:12:00,
2013-07-24 18:22:00,67.4,49.2,29.91,North,350,0.0,0.0,52,0.00,,,0.00,Wunderground v.1.15,2013-07-24 22:22:00,
2013-07-24 18:32:00,67.9,49.1,29.91,North,359,0.0,0.0,51,0.00,,,0.00,Wunderground v.1.15,2013-07-24 22:32:00,
2013-07-24 18:37:00,68.1,48.2,29.91,North,357,0.0,0.0,49,0.00,,,0.00,Wunderground v.1.15,2013-07-24 22:37:00,
2013-07-24 18:47:00,67.9,48.0,29.91,North,357,0.0,0.0,49,0.00,,,0.00,Wunderground v.1.15,2013-07-24 22:47:00,
2013-07-24 18:52:00,67.4,48.1,29.91,North,357,0.0,0.0,50,0.00,,,0.00,Wunderground v.1.15,2013-07-24 22:52:00,
2013-07-24 19:02:00,66.4,48.2,29.91,North,357,0.0,0.0,52,0.00,,,0.00,Wunderground v.1.15,2013-07-24 23:02:00,
2013-07-24 19:12:00,65.8,47.2,29.91,North,357,0.0,0.0,51,0.00,,,0.00,Wunderground v.1.15,2013-07-24 23:12:00,
2013-07-24 19:22:00,65.2,47.6,29.91,North,357,0.0,0.0,53,0.00,,,0.00,Wunderground v.1.15,2013-07-24 23:22:00,
2013-07-24 19:32:00,64.8,48.2,29.91,North,357,0.0,0.0,55,0.00,,,0.00,Wunderground v.1.15,2013-07-24 23:32:00,
2013-07-24 19:37:00,64.7,48.2,29.91,North,357,0.0,0.0,55,0.00,,,0.00,Wunderground v.1.15,2013-07-24 23:37:00,
2013-07-24 19:47:00,64.3,47.8,29.92,North,357,0.0,0.0,55,0.00,,,0.00,Wunderground v.1.15,2013-07-24 23:47:00,
2013-07-24 19:52:00,64.2,48.6,29.92,North,357,0.0,0.0,57,0.00,,,0.00,Wunderground v.1.15,2013-07-24 23:52:00,
2013-07-24 20:02:00,64.0,48.9,29.92,North,357,0.0,0.0,58,0.00,,,0.00,Wunderground v.1.15,2013-07-25 00:02:00,
2013-07-24 20:12:00,63.5,49.4,29.92,North,357,0.0,0.0,60,0.00,,,0.00,Wunderground v.1.15,2013-07-25 00:12:00,
2013-07-24 20:22:00,62.9,49.7,29.92,North,357,0.0,0.0,62,0.00,,,0.00,Wunderground v.1.15,2013-07-25 00:22:00,
2013-07-24 20:32:00,62.1,49.8,29.92,North,357,0.0,0.0,64,0.00,,,0.00,Wunderground v.1.15,2013-07-25 00:32:00,
2013-07-24 20:37:00,61.5,49.2,29.92,North,357,0.0,0.0,64,0.00,,,0.00,Wunderground v.1.15,2013-07-25 00:37:00,
2013-07-24 20:47:00,60.9,49.9,29.93,North,357,0.0,0.0,67,0.00,,,0.00,Wunderground v.1.15,2013-07-25 00:47:00,
2013-07-24 20:52:00,60.5,49.5,29.93,North,357,0.0,0.0,67,0.00,,,0.00,Wunderground v.1.15,2013-07-25 00:52:00,
2013-07-24 21:02:00,59.9,49.3,29.93,North,357,0.0,0.0,68,0.00,,,0.00,Wunderground v.1.15,2013-07-25 01:02:00,
2013-07-24 21:12:00,59.5,49.7,29.93,North,357,0.0,0.0,70,0.00,,,0.00,Wunderground v.1.15,2013-07-25 01:12:00,
2013-07-24 21:22:00,58.9,50.3,29.94,North,357,0.0,0.0,73,0.00,,,0.00,Wunderground v.1.15,2013-07-25 01:22:00,
2013-07-24 21:32:00,58.4,49.8,29.94,North,357,0.0,0.0,73,0.00,,,0.00,Wunderground v.1.15,2013-07-25 01:32:00,
2013-07-24 21:37:00,58.1,49.5,29.94,North,357,0.0,0.0,73,0.00,,,0.00,Wunderground v.1.15,2013-07-25 01:37:00,
2013-07-24 21:47:00,57.8,49.6,29.94,North,357,0.0,0.0,74,0.00,,,0.00,Wunderground v.1.15,2013-07-25 01:47:00,
2013-07-24 21:52:00,57.5,49.6,29.94,North,357,0.0,0.0,75,0.00,,,0.00,Wunderground v.1.15,2013-07-25 01:52:00,
2013-07-24 22:02:00,57.2,49.7,29.95,North,357,0.0,0.0,76,0.00,,,0.00,Wunderground v.1.15,2013-07-25 02:02:00,
2013-07-24 22:07:00,57.0,50.2,29.95,North,357,0.0,0.0,78,0.00,,,0.00,Wunderground v.1.15,2013-07-25 02:07:00,
2013-07-24 22:12:00,56.9,49.8,29.95,North,357,0.0,0.0,77,0.00,,,0.00,Wunderground v.1.15,2013-07-25 02:12:00,
2013-07-24 22:22:00,56.6,49.8,29.95,North,357,0.0,0.0,78,0.00,,,0.00,Wunderground v.1.15,2013-07-25 02:22:00,
2013-07-24 22:32:00,56.3,49.9,29.96,North,357,0.0,0.0,79,0.00,,,0.00,Wunderground v.1.15,2013-07-25 02:32:00,
2013-07-24 22:37:00,56.2,49.8,29.96,North,357,0.0,0.0,79,0.00,,,0.00,Wunderground v.1.15,2013-07-25 02:37:00,
2013-07-24 22:47:00,55.9,49.5,29.96,North,357,0.0,0.0,79,0.00,,,0.00,Wunderground v.1.15,2013-07-25 02:47:00,
2013-07-24 22:52:00,55.7,49.6,29.96,North,357,0.0,0.0,80,0.00,,,0.00,Wunderground v.1.15,2013-07-25 02:52:00,
2013-07-24 23:02:00,55.4,49.7,29.96,North,357,0.0,0.0,81,0.00,,,0.00,Wunderground v.1.15,2013-07-25 03:02:00,
2013-07-24 23:12:00,55.3,49.6,29.96,North,357,0.0,0.0,81,0.00,,,0.00,Wunderground v.1.15,2013-07-25 03:12:00,
2013-07-24 23:17:00,55.1,49.4,29.97,North,357,0.0,0.0,81,0.00,,,0.00,Wunderground v.1.15,2013-07-25 03:17:00,
2013-07-24 23:22:00,55.1,49.4,29.97,North,357,0.0,0.0,81,0.00,,,0.00,Wunderground v.1.15,2013-07-25 03:22:00,
2013-07-24 23:32:00,55.1,49.4,29.97,North,357,0.0,0.0,81,0.00,,,0.00,Wunderground v.1.15,2013-07-25 03:32:00,
2013-07-24 23:37:00,55.3,49.6,29.97,North,357,0.0,0.0,81,0.00,,,0.00,Wunderground v.1.15,2013-07-25 03:37:00,
2013-07-24 23:47:00,55.1,49.4,29.98,North,357,0.0,0.0,81,0.00,,,0.00,Wunderground v.1.15,2013-07-25 03:47:00,
2013-07-24 23:52:00,55.1,49.4,29.98,North,357,0.0,0.0,81,0.00,,,0.00,Wunderground v.1.15,2013-07-25 03:52:00,